Weather History for Madisonville, KY

Change the Weather History Date:

Sunday, March 2, 2014

  Actual Average (KOWB) Record (KOWB)
Temperature  
Mean Temperature 34 °F -  
Max Temperature 46 °F 56 °F 77 °F (1992)
Min Temperature 22 °F 34 °F 7 °F (1980)
Degree Days  
Heating Degree Days 31    
Moisture  
Dew Point 31 °F    
Average Humidity 94    
Maximum Humidity 100    
Minimum Humidity 75    
Precipitation  
Precipitation 1.06 in - - ()
Sea Level Pressure  
Sea Level Pressure 30.15 in    
Wind  
Wind Speed 9 mph (North)    
Max Wind Speed 17 mph    
Max Gust Speed 23 mph    
Visibility 5 miles    
Events Rain , Snow    
Averages and records for this station are not official NWS values.
T = Trace of Precipitation, MM = Missing Value Source: NWS Daily Summary

Daily Weather History Graph

Daily Weather History Graph

Search for Another Location

Airport:

Trip Planner

Search our weather history database for the weather conditions in past years. The results will help you decide how hot, cold, wet, or windy it might be!

Date:

Astronomy

Mar. 02, 2014 Rise Set
Actual Time 6:19 AM CST 5:44 PM CST
Civil Twilight 5:53 AM CST 6:10 PM CST
Nautical Twilight 5:23 AM CST 6:40 PM CST
Astronomical Twilight 4:52 AM CST 7:11 PM CST
Moon 6:53 AM CST (3/2) 7:37 PM CST (3/2)
Length of Visible Light 12h 17m
Length of Day
11h 25m
Waxing Crescent, 3% of the Moon is Illuminated
Mar 2
Waxing Crescent
Mar 8
First Quarter
Mar 16
Full
Mar 23
Last Quarter
Mar 30
New

Hourly Weather History & Observations

Time (CST) Temp. Windchill Dew Point Humidity Pressure Visibility Wind Dir Wind Speed Gust Speed Precip Events Conditions
12:15 AM 46.4 °F 45.2 °F 39.4 °F 77% 30.11 in 10.0 mi NNE 3.5 mph - N/A   Overcast
12:35 AM 46.2 °F 45.0 °F 39.2 °F 76% 30.10 in 10.0 mi NNE 3.5 mph - N/A   Overcast
12:55 AM 45.7 °F 42.0 °F 39.4 °F 79% 30.11 in 10.0 mi North 6.9 mph - N/A   Overcast
1:15 AM 45.9 °F 41.2 °F 38.5 °F 75% 30.11 in 10.0 mi North 9.2 mph - N/A   Overcast
1:35 AM 45.0 °F 39.7 °F 37.8 °F 76% 30.11 in 10.0 mi North 10.4 mph - N/A   Overcast
1:55 AM 43.2 °F 38.4 °F 36.9 °F 78% 30.10 in 10.0 mi North 8.1 mph - N/A   Overcast
2:15 AM 42.8 °F 37.5 °F 36.5 °F 78% 30.10 in 10.0 mi North 9.2 mph - N/A   Overcast
2:35 AM 41.4 °F 36.2 °F 36.5 °F 83% 30.10 in 7.0 mi North 8.1 mph - N/A   Drizzle
2:55 AM 40.8 °F 35.0 °F 36.0 °F 83% 30.10 in 7.0 mi North 9.2 mph - N/A Rain Light Rain
3:15 AM 40.1 °F 33.6 °F 35.1 °F 82% 30.10 in 7.0 mi North 10.4 mph - N/A Rain Rain
3:35 AM 39.4 °F 32.7 °F 34.3 °F 82% 30.09 in 7.0 mi North 10.4 mph - N/A   Overcast
3:55 AM 39.2 °F 33.6 °F 34.3 °F 83% 30.08 in 7.0 mi NNE 8.1 mph - N/A   Overcast
4:15 AM 38.3 °F 33.9 °F 33.8 °F 84% 30.07 in 7.0 mi NNE 5.8 mph - N/A   Overcast
4:35 AM 38.1 °F 31.2 °F 33.8 °F 84% 30.09 in 7.0 mi North 10.4 mph - N/A   Overcast
4:55 AM 37.8 °F 30.7 °F 33.6 °F 85% 30.09 in 7.0 mi North 10.4 mph - N/A   Overcast
5:15 AM 37.4 °F 29.8 °F 33.3 °F 85% 30.08 in 5.0 mi North 11.5 mph - N/A   Overcast
5:35 AM 36.5 °F 29.2 °F 32.9 °F 87% 30.07 in 5.0 mi North 10.4 mph - N/A   Overcast
5:55 AM 36.0 °F 27.1 °F 32.9 °F 89% 30.08 in 5.0 mi North 13.8 mph - N/A   Overcast
6:15 AM 34.9 °F 28.3 °F 34.2 °F 97% 30.07 in 1.2 mi NNE 8.1 mph - 0.15 in Snow Light Snow
6:35 AM 34.5 °F 24.8 °F 34.2 °F 99% 30.08 in 1.0 mi North 15.0 mph - 0.33 in Snow Light Snow
6:55 AM 34.0 °F 26.6 °F 34.0 °F 100% 30.11 in 1.5 mi North 9.2 mph - 0.37 in Snow Light Snow
7:15 AM 34.0 °F 25.0 °F 34.0 °F 100% 30.12 in 1.5 mi North 12.7 mph 17.3 mph N/A   Overcast
7:35 AM 33.8 °F 24.8 °F 33.8 °F 100% 30.12 in 1.5 mi North 12.7 mph 17.3 mph N/A   Overcast
7:55 AM 33.3 °F 22.8 °F 33.3 °F 100% 30.14 in 1.5 mi North 16.1 mph 21.9 mph N/A   Overcast
8:15 AM 32.9 °F 22.0 °F 32.9 °F 100% 30.17 in 1.5 mi North 17.3 mph - N/A Snow Light Snow
8:35 AM 32.9 °F 22.0 °F 32.9 °F 100% 30.20 in 1.0 mi NNW 17.3 mph 23.0 mph 0.10 in Snow Light Snow
8:55 AM 32.9 °F 29.8 °F 32.4 °F 98% 30.17 in 0.5 mi NNE 3.5 mph 11.5 mph 0.23 in Snow Light Snow
9:15 AM 32.9 °F 26.7 °F 32.9 °F 100% 30.16 in 1.5 mi NNE 6.9 mph - 0.07 in Snow Light Snow
9:35 AM 32.9 °F 28.5 °F 32.9 °F 100% 30.17 in 1.2 mi North 4.6 mph - 0.13 in Snow Light Snow
9:55 AM 33.1 °F 26.9 °F 33.1 °F 100% 30.19 in 10.0 mi NNW 6.9 mph - 0.14 in   Overcast
10:15 AM 33.3 °F 25.7 °F 33.3 °F 100% 30.17 in 4.0 mi North 9.2 mph - 0.01 in   Overcast
10:35 AM 33.8 °F 26.4 °F 33.8 °F 100% 30.18 in 5.0 mi North 9.2 mph - 0.01 in Snow Light Snow
10:55 AM 33.8 °F 25.8 °F 33.3 °F 98% 30.18 in 10.0 mi North 10.4 mph - 0.02 in   Overcast
11:15 AM 34.0 °F 26.0 °F 33.4 °F 98% 30.17 in 10.0 mi NNE 10.4 mph - N/A   Overcast
11:35 AM 34.3 °F 25.9 °F 33.8 °F 98% 30.17 in 10.0 mi North 11.5 mph - N/A   Overcast
11:55 AM 33.4 °F 25.4 °F 33.1 °F 99% 30.18 in 10.0 mi North 10.4 mph - N/A Snow Light Snow
12:15 PM 33.1 °F 25.5 °F 32.7 °F 99% 30.18 in 10.0 mi North 9.2 mph - N/A   Overcast
12:35 PM 32.7 °F 25.0 °F 32.4 °F 99% 30.17 in 10.0 mi North 9.2 mph - N/A   Overcast
12:55 PM 32.2 °F 25.0 °F 32.0 °F 99% 30.17 in 10.0 mi North 8.1 mph 19.6 mph N/A   Overcast
1:15 PM 32.0 °F 22.5 °F 31.8 °F 99% 30.14 in 10.0 mi North 12.7 mph - N/A   Overcast
1:35 PM 31.5 °F 22.3 °F 31.1 °F 99% 30.16 in 10.0 mi North 11.5 mph - N/A   Overcast
1:55 PM 30.7 °F 24.1 °F 30.2 °F 98% 30.20 in 10.0 mi NNW 6.9 mph - N/A   Overcast
2:15 PM 30.2 °F 21.3 °F 29.7 °F 98% 30.19 in 7.0 mi NNW 10.4 mph - N/A   Overcast
2:35 PM 29.8 °F 18.9 °F 29.3 °F 98% 30.15 in 2.0 mi North 15.0 mph - 0.03 in Snow Light Snow
2:55 PM 28.9 °F 20.4 °F 28.8 °F 99% 30.14 in 1.8 mi NNE 9.2 mph - 0.04 in Snow Light Snow
3:15 PM 29.3 °F 21.5 °F 29.1 °F 99% 30.15 in 2.0 mi North 8.1 mph - 0.02 in Snow Light Snow
3:35 PM 29.3 °F 20.8 °F 29.3 °F 100% 30.16 in 1.8 mi North 9.2 mph - 0.05 in Snow Light Snow
3:55 PM 29.3 °F 20.8 °F 29.1 °F 99% 30.16 in 3.0 mi North 9.2 mph - 0.06 in Snow Light Snow
4:15 PM 29.3 °F 20.8 °F 29.1 °F 99% 30.13 in 2.0 mi NNE 9.2 mph - 0.01 in Snow Light Snow
4:35 PM 29.3 °F 20.2 °F 28.9 °F 99% 30.10 in 5.0 mi NE 10.4 mph - 0.01 in Snow Light Snow
4:55 PM 29.3 °F 20.8 °F 28.4 °F 96% 30.19 in 7.0 mi North 9.2 mph - 0.01 in Snow Light Snow
5:15 PM 28.8 °F 20.2 °F 27.7 °F 96% 30.21 in 5.0 mi North 9.2 mph - N/A Snow Light Snow
5:35 PM 28.4 °F 19.1 °F 27.3 °F 96% 30.21 in 10.0 mi North 10.4 mph - N/A   Overcast
5:55 PM 28.0 °F 18.6 °F 26.6 °F 94% 30.20 in 7.0 mi North 10.4 mph - N/A Snow Light Snow
6:15 PM 27.5 °F 16.3 °F 26.6 °F 96% 30.19 in 5.0 mi North 13.8 mph - N/A   Overcast
6:35 PM 27.3 °F 17.7 °F 26.6 °F 97% 30.19 in 4.0 mi NNE 10.4 mph 16.1 mph N/A Snow Light Snow
6:55 PM 26.6 °F 15.7 °F 26.1 °F 98% 30.19 in 2.5 mi North 12.7 mph - 0.01 in Snow Light Snow
7:15 PM 26.6 °F 16.8 °F 25.9 °F 97% 30.18 in 3.0 mi North 10.4 mph - N/A Snow Light Snow
7:35 PM 26.4 °F 15.5 °F 25.7 °F 97% 30.16 in 3.0 mi NNE 12.7 mph - 0.01 in Snow Light Snow
7:55 PM 26.1 °F 16.2 °F 25.5 °F 98% 30.15 in 2.5 mi NNE 10.4 mph - 0.01 in Snow Light Snow
8:15 PM 25.7 °F 15.1 °F 24.8 °F 96% 30.18 in 4.0 mi NNE 11.5 mph - N/A   Overcast
8:35 PM 25.7 °F 14.6 °F 24.6 °F 96% 30.21 in 3.0 mi North 12.7 mph - 0.02 in Snow Light Snow
8:55 PM 25.7 °F 15.7 °F 25.2 °F 98% 30.17 in 2.5 mi North 10.4 mph - 0.05 in Snow Light Snow
9:15 PM 25.5 °F 14.9 °F 25.0 °F 98% 30.17 in 2.0 mi NNE 11.5 mph - 0.01 in Snow Light Snow
9:35 PM 24.8 °F 13.4 °F 24.3 °F 98% 30.18 in 2.5 mi NNE 12.7 mph - 0.02 in Snow Light Snow
9:55 PM 24.4 °F 11.9 °F 23.5 °F 96% 30.19 in 3.0 mi North 15.0 mph - 0.04 in Snow Light Snow
10:20 PM 23.4 °F 11.1 °F 22.8 °F 98% 30.19 in 2.0 mi North 13.8 mph - 0.02 in Snow Light Snow
10:35 PM 23.0 °F 11.1 °F 21.7 °F 95% 30.18 in 2.5 mi NNE 12.7 mph - 0.03 in Snow Light Snow
10:55 PM 22.8 °F 12.9 °F 22.1 °F 97% 30.18 in 2.5 mi NNE 9.2 mph - 0.05 in Snow Light Snow
11:15 PM 23.0 °F 12.4 °F 22.1 °F 96% 30.18 in 3.0 mi NNE 10.4 mph - 0.01 in Snow Light Snow
11:35 PM 22.8 °F 11.5 °F 22.1 °F 97% 30.17 in 2.0 mi NNE 11.5 mph - 0.02 in Snow Light Snow
11:55 PM 22.8 °F 10.4 °F 22.1 °F 97% 30.16 in 3.0 mi NNE 13.8 mph - 0.03 in Snow Light Snow